User: anonymous   Login
Location: Unspecified
(0.0000°N, 0.0000°E)
Time: 10:05:56
(UTC+00:00)
Language:

STARLINK-33828 - Orbit

View from above orbital plane
View from above orbital plane
View from above satellite
View from above satellite

Ground track
Ground track

The orbit is defined by the following mean orbital elements,

1 63493U          26145.41510860 +.00000000 +00000-0 +76195-3 0 00002
2 63493  53.1587 143.0798 0000884  70.5292 289.5810 15.42184687    02
Epoch (UTC): 25 May 2026 09:57:45
Eccentricity: 0.0000884
inclination: 53.1587°
perigee height: 439 km
apogee height: 440 km
right ascension of ascending node: 143.0798°
argument of perigee: 70.5292°
revolutions per day: 15.42184687
mean anomaly at epoch: 289.5810°

The dashed part of the orbit path shows where the satellite is in the earth's shadow,  

DLR